• Processing (Info)

  • MPEC 2006-M61 : COMET P/1889 M1 = 2006 M3 (BARNARD)

    The following Minor Planet Electronic Circular may be linked-to from your own Web pages, but must not otherwise be redistributed electronically.

    A form allowing access to any MPEC is at the bottom of this page.


    Read MPEC 2006-M60 Read MPEC 2006-M62


    M.P.E.C. 2006-M61                                Issued 2006 June 30, 15:51 UT
    
         The Minor Planet Electronic Circulars contain information on unusual
             minor planets and routine data on comets.  They are published
       on behalf of Commission 20 of the International Astronomical Union by the
              Minor Planet Center, Smithsonian Astrophysical Observatory,
                              Cambridge, MA 02138, U.S.A.
    
                      Supported in part by the Brinson Foundation
                      Supported in part by the TABASGO Foundation
                 Prepared using the Tamkin Foundation Computer Network
    
                                  MPC@CFA.HARVARD.EDU
              URL http://cfa-www.harvard.edu/iau/mpc.html  ISSN 1523-6714
    
                          COMET P/1889 M1 = 2006 M3 (BARNARD)
    
    Observations:
        PK06M030  C2006 06 25.48295 17 40 13.12 -25 12 10.6          16.5 T EM061423
        PK06M030  C2006 06 25.49684 17 40 11.70 -25 11 18.4          16.7 T EM061423
        PK06M030  C2006 06 25.96429 17 39 27.18 -24 41 49.3          16.3 N EM061A77
        PK06M030  C2006 06 25.96476 17 39 27.10 -24 41 47.1          16.6 N EM061A77
        PK06M030  C2006 06 25.96839 17 39 26.79 -24 41 32.9          16.7 N EM061A77
        PK06M030  C2006 06 25.96918 17 39 26.64 -24 41 29.3          16.0 N EM061A77
        PK06M030  C2006 06 25.97017 17 39 26.67 -24 41 26.2          16.9 N EM061A77
        PK06M030  C2006 06 25.97315 17 39 26.38 -24 41 15.4          16.2 N EM061A77
        PK06M030  C2006 06 25.97767 17 39 25.83 -24 40 57.3          17.1 N EM061A77
        PK06M030  C2006 06 25.97985 17 39 25.74 -24 40 47.9          16.5 N EM061A77
        PK06M030  C2006 06 25.98183 17 39 25.43 -24 40 39.3          16.5 N EM061A77
        PK06M030  C2006 06 26.86716 17 38 02.09 -23 42 39.8                 EM061104
        PK06M030  C2006 06 26.87221 17 38 01.63 -23 42 19.2                 EM061104
        PK06M030  C2006 06 26.87232 17 38 01.71 -23 42 18.1          15.7 N EM061213
        PK06M030  C2006 06 26.87369 17 38 01.58 -23 42 12.5          15.7 N EM061213
        PK06M030  C2006 06 26.87479 17 38 01.49 -23 42 07.9          15.7 N EM061213
        PK06M030  C2006 06 26.87950 17 38 01.07 -23 41 50.1                 EM061104
        PK06M030  C2006 06 26.88280 17 38 00.46 -23 41 36.9                 EM061104
        PK06M030  C2006 06 27.48168 17 37 03.55 -23 00 52.8          16.3 T EM061423
        PK06M030  C2006 06 27.49557 17 37 02.12 -22 59 56.1          16.8 T EM061423
        PK06M030  C2006 06 27.50946 17 37 00.66 -22 58 59.9          16.5 T EM061423
        PK06M030  C2006 06 27.52044 17 36 59.76 -22 58 34.7                 EM061D88
        PK06M030  C2006 06 27.52223 17 36 59.61 -22 58 25.9                 EM061D88
        PK06M030  C2006 06 27.52311 17 36 59.25 -22 58 04.0          16.5 T EM061423
        PK06M030  C2006 06 27.52403 17 36 59.43 -22 58 18.4          15.0 T EM061D88
        PK06M030  C2006 06 27.60948 17 36 50.64 -22 52 28.8                 EM061349
        PK06M030  C2006 06 27.61116 17 36 50.46 -22 52 21.7                 EM061349
        PK06M030  C2006 06 27.61283 17 36 50.33 -22 52 15.2          15.1 T EM061349
        PK06M030  C2006 06 27.93073 17 36 20.30 -22 30 22.1                 EM061J95
        PK06M030  C2006 06 27.93266 17 36 20.11 -22 30 13.6                 EM061J95
        PK06M030  C2006 06 27.93457 17 36 19.91 -22 30 05.4          16.5 N EM061J95
        PK06M030  C2006 06 28.18583 17 35 55.84 -22 12 33.6          15.7 N EM061850
        PK06M030  C2006 06 28.20095 17 35 54.20 -22 11 31.0          16.9 N EM061850
        PK06M030  C2006 06 28.24688 17 35 49.43 -22 08 18.0          17.2 N EM061850
        PK06M030  C2006 06 28.26321 17 35 47.65 -22 07 09.1          17.4 N EM061850
        PK06M030  C2006 06 28.93390 17 34 43.88 -21 19 31.0          15.7 N EM061J97
        PK06M030  C2006 06 28.94808 17 34 42.51 -21 18 31.9          15.9 N EM061J97
        PK06M030  C2006 06 29.18677 17 34 19.40 -21 01 15.2          16.4 N EM061850
        PK06M030  C2006 06 29.19837 17 34 18.22 -21 00 25.3          16.0 N EM061850
        PK06M030  C2006 06 29.20997 17 34 16.97 -20 59 34.5          15.8 N EM061850
        PK06M030  C2006 06 29.22156 17 34 15.76 -20 58 44.2          16.7 N EM061850
        PK06M030  C2006 06 29.23316 17 34 14.54 -20 57 53.5          16.2 N EM061850
        PK06M030  C2006 06 29.24476 17 34 13.32 -20 57 02.8          16.1 N EM061850
        PK06M030  C2006 06 29.25636 17 34 12.06 -20 56 12.1          16.0 N EM061850
        PK06M030  C2006 06 29.26795 17 34 10.97 -20 55 22.9          16.1 N EM061850
        PK06M030  C2006 06 29.27222 17 34 11.82 -20 54 47.0          14.5 T EM061F84
        PK06M030  C2006 06 29.31497 17 34 07.34 -20 51 41.5                 EM061F84
        PK06M030  C2006 06 29.33631 17 34 05.15 -20 50 08.7          15.5 N EM061F84
        PK06M030  C2006 06 29.36902 17 34 00.92 -20 47 59.4                 EM061H06
        PK06M030  C2006 06 29.37235 17 34 00.62 -20 47 43.8                 EM061H06
        PK06M030  C2006 06 29.59907 17 33 39.34 -20 31 10.1          16.4 N EM061379
        PK06M030  C2006 06 29.60060 17 33 39.14 -20 31 03.4          16.3 N EM061379
        PK06M030  C2006 06 29.60674 17 33 38.56 -20 30 35.9          16.8 N EM061379
        PK06M030  C2006 06 29.61278 17 33 37.94 -20 30 09.6          15.8 N EM061379
        PK06M030  C2006 06 29.62007 17 33 37.14 -20 29 36.6          16.0 N EM061379
        PK06M030  C2006 06 29.99394 17 33 01.18 -20 01 57.6          15.6 N EM061945
        PK06M030  C2006 06 30.00135 17 33 00.41 -20 01 22.8          15.6 N EM061945
        PK06M030  C2006 06 30.26916 17 32 34.81 -19 41 19.3          14.5 T EM061673
        PK06M030  C2006 06 30.27517 17 32 34.19 -19 40 52.1                 EM061673
        PK06M030  C2006 06 30.27876 17 32 33.78 -19 40 36.0                 EM061673
        PK06M030  C2006 06 30.28374 17 32 33.28 -19 40 13.3                 EM061673
    
    Observer details:
    104 San Marcello Pistoiese.  Observers L. Tesi, M. Tombelli, G. Fagioli,
        M. Mazzucato, F. Dolfi.  Measurers G. Forti, L. Tesi.  0.60-m f/4
        reflector + CCD.
    213 Observatorio Montcabre.  Observer R. Naves.  Measurer M. Campas.  0.30-m
        f/10 Schmidt-Cassegrain + CCD.
    349 Ageo.  Observer K. Kadota.  0.25-m f/5.0 reflector + CCD.
    379 Hamamatsu-Yuto.  Observer S. Wakuda.  0.25-m f/5.0 Schmidt-Cassegrain
        + CCD.
    423 North Ryde.  Observer S. G. McAndrew.  0.20-m f/4 hyperbolic astrograph
        + CCD.
    673 Table Mountain Observatory, Wrightwood.  Observer J. Young.  0.61-m f/16
        Cassegrain + CCD.
    850 Cordell-Lorenz Observatory, Sewanee.  Observers D. T. Durig,
        J. C. Cockhren.  0.30-m f/5 Schmidt-Cassegrain + CCD.
    945 Observatorio Monte Deva.  Observer J. R. Vidal.  0.36-m f/4.48
        Schmidt-Cassegrain + CCD.
    A77 Observatoire Chante-Perdrix, Dauban.  Observer F. Kugel.  0.20-m f/5.5
        Schmidt-Cassegrain + CCD.
    D88 Hiratsuka.  Observer Y. Sugiyama.  0.25-m f/5.0 reflector + CCD.
    F84 Hibiscus Observatory, Punaauia.  Observers N. Teamo, S. F. Hoenig.
        Measurer S. F. Hoenig.  0.35-m f/3.29 Schmidt-Cassegrain + CCD.
    H06 New Mexico Skies Observatory.  Observer M. Suzuki.  0.25-m f/3.4 reflector
        + CCD.
    J95 Great Shefford.  Observer P. Birtwhistle.  0.40-m f/6.0 Schmidt-Cassegrain
        + CCD.
    J97 Alginet.  Observer T. Climent.  0.25-m f/3.3 Schmidt-Cassegrain + CCD.
    
    Orbital elements:
        P/1889 M1 = 2006 M3 (Barnard)
    Epoch 1889 June 7.0 TT = JDT 2411160.5
    T 1889 June 21.23718 TT                                 MPC
    q   1.1029387            (2000.0)            P               Q
    n   0.00839833     Peri.   60.14612     +0.76307015     +0.38677169
    a  23.9703413      Node   272.54490     -0.60486491     +0.70965438
    e   0.9539874      Incl.   31.21999     +0.22773314     +0.58889585
    P 117.36
    
    Epoch 2006 Aug. 13.0 TT = JDT 2453960.5
    T 2006 Aug. 28.68925 TT                                 MPC
    q   1.1071631            (2000.0)            P               Q
    n   0.00823846     Peri.   60.46433     +0.76136619     +0.38994073
    a  24.2794488      Node   272.06651     -0.60674592     +0.71005278
    e   0.9543992      Incl.   31.21713     +0.22843142     +0.58632012
    P 119.63
    
